Location: A�t Bou Chrif
(32.7193°N, 5.2385°W)
Time: 03:10:34
(UTC+00:00)

Cosmos 220 Rocket - Pass Details

Date: 08 August 2020
Orbit: 575 x 617 km, 74.0° (Epoch: 20 September)

Event Time Altitude Azimuth Distance (km) Brightness Sun altitude
Rises 21:06:32 0° 345° (NNW) 2,789 8.2 -21.9°
Reaches altitude 10° 21:08:45 10° 348° (NNW) 1,890 7.2 -22.3°
Enters shadow 21:12:48 71° 55° (NE) 613 3.9 -22.9°
